TimeEDT,TemperatureF,Dew PointF,Humidity,Sea Level PressureIn,VisibilityMPH,Wind Direction,Wind SpeedMPH,Gust SpeedMPH,PrecipitationIn,Events,Conditions,WindDirDegrees,DateUTC
12:14 AM,68.7,65.1,88,29.75,10.0,South,4.6,-,N/A,,Overcast,180,2013-05-22 04:14:00
12:34 AM,68.2,66.0,93,29.75,10.0,SW,5.8,-,N/A,Rain,Light Rain,230,2013-05-22 04:34:00
12:55 AM,67.8,64.8,90,29.75,7.0,SSW,11.5,-,N/A,Rain,Light Rain,200,2013-05-22 04:55:00
1:14 AM,67.3,64.4,90,29.75,10.0,SSW,5.8,-,N/A,,Scattered Clouds,200,2013-05-22 05:14:00
1:34 AM,66.4,63.7,91,29.74,10.0,South,3.5,-,N/A,,Clear,190,2013-05-22 05:34:00
1:55 AM,66.6,63.9,91,29.74,10.0,Calm,Calm,-,N/A,,Clear,0,2013-05-22 05:55:00
2:14 AM,66.4,64.4,93,29.74,10.0,South,3.5,-,N/A,,Mostly Cloudy,180,2013-05-22 06:14:00
2:34 AM,67.1,64.6,92,29.73,10.0,South,3.5,-,N/A,,Mostly Cloudy,180,2013-05-22 06:34:00
2:55 AM,67.1,64.6,92,29.73,10.0,SSW,5.8,-,N/A,,Scattered Clouds,200,2013-05-22 06:55:00
3:14 AM,67.1,64.6,92,29.73,10.0,SSW,4.6,-,N/A,,Mostly Cloudy,210,2013-05-22 07:14:00
3:35 AM,67.1,64.8,92,29.73,10.0,SSW,5.8,-,N/A,,Mostly Cloudy,200,2013-05-22 07:35:00
3:55 AM,66.9,64.8,93,29.72,10.0,SSW,3.5,-,N/A,,Mostly Cloudy,210,2013-05-22 07:55:00
4:14 AM,66.6,64.8,94,29.71,10.0,SSW,3.5,-,N/A,Rain,Light Rain,200,2013-05-22 08:14:00
4:35 AM,67.1,65.1,93,29.72,10.0,South,5.8,-,N/A,,Mostly Cloudy,180,2013-05-22 08:35:00
4:54 AM,67.1,65.3,94,29.72,10.0,South,6.9,-,N/A,,Overcast,190,2013-05-22 08:54:00
5:14 AM,67.1,64.9,93,29.72,10.0,South,5.8,-,N/A,Rain,Light Rain,190,2013-05-22 09:14:00
5:35 AM,66.7,64.9,94,29.72,10.0,South,5.8,-,N/A,Rain,Light Rain,190,2013-05-22 09:35:00
5:54 AM,66.2,64.8,95,29.72,7.0,South,5.8,-,N/A,Rain,Light Rain,190,2013-05-22 09:54:00
6:14 AM,66.2,64.9,96,29.72,10.0,SSE,4.6,-,N/A,,Overcast,160,2013-05-22 10:14:00
6:35 AM,65.8,64.6,96,29.72,7.0,South,5.8,-,N/A,,Mostly Cloudy,180,2013-05-22 10:35:00
6:54 AM,65.8,64.4,95,29.72,10.0,South,4.6,-,N/A,,Scattered Clouds,180,2013-05-22 10:54:00
7:14 AM,66.2,64.4,94,29.72,10.0,SSE,4.6,-,N/A,,Scattered Clouds,160,2013-05-22 11:14:00
7:35 AM,66.2,64.8,95,29.73,7.0,South,6.9,-,N/A,Rain,Light Rain,170,2013-05-22 11:35:00
7:54 AM,66.2,64.8,95,29.72,7.0,South,8.1,-,N/A,,Overcast,170,2013-05-22 11:54:00
8:15 AM,66.4,64.8,95,29.72,7.0,South,8.1,-,N/A,,Overcast,170,2013-05-22 12:15:00
8:35 AM,66.6,64.9,95,29.71,7.0,South,10.4,-,N/A,,Overcast,170,2013-05-22 12:35:00
8:54 AM,67.1,65.1,93,29.71,10.0,South,10.4,-,N/A,,Overcast,180,2013-05-22 12:54:00
9:15 AM,67.1,64.8,92,29.70,10.0,South,9.2,-,N/A,,Overcast,180,2013-05-22 13:15:00
9:34 AM,67.1,64.8,92,29.70,10.0,South,8.1,-,N/A,,Overcast,190,2013-05-22 13:34:00
9:54 AM,67.1,64.6,92,29.70,10.0,South,11.5,-,N/A,,Overcast,180,2013-05-22 13:54:00
10:15 AM,67.5,64.9,92,29.70,10.0,South,9.2,-,N/A,,Overcast,180,2013-05-22 14:15:00
10:34 AM,66.6,64.6,93,29.70,7.0,South,10.4,-,N/A,Rain,Rain,180,2013-05-22 14:34:00
10:54 AM,66.4,64.4,93,29.69,5.0,South,11.5,-,N/A,Rain,Light Rain,180,2013-05-22 14:54:00
11:15 AM,66.2,64.6,94,29.69,5.0,South,9.2,-,N/A,,Light Drizzle,180,2013-05-22 15:15:00
11:34 AM,65.8,64.4,95,29.70,7.0,SSW,11.5,16.1,N/A,Rain,Rain,200,2013-05-22 15:34:00
11:54 AM,66.2,64.6,94,29.70,5.0,SW,10.4,16.1,N/A,,Overcast,220,2013-05-22 15:54:00
12:15 PM,66.6,65.3,96,29.70,5.0,SSW,10.4,-,N/A,Rain,Light Rain,200,2013-05-22 16:15:00
12:34 PM,69.6,67.5,93,29.70,10.0,SSW,11.5,-,N/A,,Overcast,210,2013-05-22 16:34:00
12:55 PM,71.1,67.1,87,29.70,10.0,SSW,13.8,24.2,N/A,,Overcast,210,2013-05-22 16:55:00
1:14 PM,71.1,64.9,81,29.69,10.0,SSW,16.1,26.5,N/A,,Overcast,210,2013-05-22 17:14:00
1:35 PM,72.5,64.6,76,29.68,10.0,SW,20.7,-,N/A,,Overcast,220,2013-05-22 17:35:00
1:54 PM,72.5,63.9,74,29.67,10.0,SW,19.6,24.2,N/A,,Mostly Cloudy,220,2013-05-22 17:54:00
2:14 PM,73.4,63.1,70,29.67,10.0,SW,16.1,20.7,N/A,,Mostly Cloudy,220,2013-05-22 18:14:00
2:35 PM,73.4,63.3,71,29.67,10.0,SW,9.2,19.6,N/A,,Mostly Cloudy,220,2013-05-22 18:35:00
2:54 PM,73.0,62.2,69,29.67,10.0,SSW,24.2,31.1,N/A,,Mostly Cloudy,200,2013-05-22 18:54:00
3:15 PM,72.9,63.9,73,29.67,10.0,SW,17.3,29.9,N/A,,Mostly Cloudy,220,2013-05-22 19:15:00
3:35 PM,72.7,62.4,70,29.67,10.0,SW,15.0,25.3,N/A,,Mostly Cloudy,230,2013-05-22 19:35:00
3:54 PM,75.0,63.0,66,29.67,10.0,SSW,18.4,24.2,N/A,,Scattered Clouds,210,2013-05-22 19:54:00
4:15 PM,68.9,64.0,84,29.67,3.0,SSW,18.4,24.2,N/A,Rain,Light Rain,210,2013-05-22 20:15:00
4:34 PM,71.6,63.5,76,29.67,10.0,WSW,16.1,24.2,N/A,,Mostly Cloudy,250,2013-05-22 20:34:00
4:54 PM,69.8,62.8,78,29.67,10.0,West,12.7,16.1,N/A,,Mostly Cloudy,280,2013-05-22 20:54:00
5:15 PM,66.2,61.9,86,29.70,10.0,West,17.3,25.3,N/A,Rain,Rain,280,2013-05-22 21:15:00
5:34 PM,63.5,61.7,94,29.68,4.0,NW,10.4,-,N/A,Rain,Light Rain,310,2013-05-22 21:34:00
5:54 PM,63.9,62.6,96,29.68,7.0,WNW,6.9,10.4,N/A,,Overcast,290,2013-05-22 21:54:00
6:15 PM,65.1,63.0,93,29.68,10.0,West,10.4,-,N/A,,Overcast,280,2013-05-22 22:15:00
6:34 PM,65.1,62.6,92,29.69,10.0,West,9.2,16.1,N/A,,Overcast,270,2013-05-22 22:34:00
6:54 PM,64.8,61.7,90,29.70,10.0,West,6.9,-,N/A,,Overcast,260,2013-05-22 22:54:00
7:15 PM,64.0,61.3,91,29.70,10.0,West,5.8,-,N/A,,Overcast,260,2013-05-22 23:15:00
7:34 PM,65.3,62.2,90,29.70,10.0,WSW,3.5,-,N/A,,Overcast,240,2013-05-22 23:34:00
7:55 PM,64.8,61.0,88,29.71,10.0,WSW,3.5,-,N/A,,Scattered Clouds,250,2013-05-22 23:55:00
8:14 PM,64.6,61.0,88,29.71,10.0,West,4.6,-,N/A,,Clear,280,2013-05-23 00:14:00
8:34 PM,64.4,60.4,87,29.72,10.0,WSW,3.5,-,N/A,,Clear,250,2013-05-23 00:34:00
8:55 PM,63.7,59.9,87,29.72,10.0,Calm,Calm,-,N/A,,Clear,0,2013-05-23 00:55:00
9:14 PM,63.0,59.7,89,29.72,10.0,Calm,Calm,-,N/A,,Clear,0,2013-05-23 01:14:00
9:35 PM,60.6,58.3,92,29.72,10.0,Calm,Calm,-,N/A,,Scattered Clouds,0,2013-05-23 01:35:00
9:55 PM,60.4,59.2,96,29.72,10.0,Calm,Calm,-,N/A,,Mostly Cloudy,0,2013-05-23 01:55:00
10:14 PM,60.3,59.4,97,29.73,10.0,Calm,Calm,-,N/A,,Overcast,0,2013-05-23 02:14:00
10:35 PM,61.2,60.6,98,29.73,10.0,Calm,Calm,-,N/A,,Mostly Cloudy,0,2013-05-23 02:35:00
10:54 PM,61.9,61.0,97,29.73,10.0,Calm,Calm,-,N/A,,Overcast,0,2013-05-23 02:54:00
11:14 PM,61.9,60.8,96,29.73,10.0,Calm,Calm,-,N/A,,Overcast,0,2013-05-23 03:14:00
11:35 PM,61.9,60.6,96,29.73,10.0,Calm,Calm,-,N/A,,Overcast,0,2013-05-23 03:35:00
11:54 PM,61.9,60.8,96,29.74,10.0,Calm,Calm,-,N/A,,Scattered Clouds,0,2013-05-23 03:54:00